Location: Joplin, MO
(37.0842°N, 94.5133°W)
Time: 20:28:44
(UTC+02:00)

Transit 2A Rocket - Pass Details

Date: 03 April 2023
Orbit: 584 x 914 km, 66.7° (Epoch: 09 June)

Event Time Altitude Azimuth Distance (km) Brightness Sun altitude
Rises 04:25:05 0° 308° (NW) 3,517 9.8 -20.7°
Reaches altitude 10° 04:29:40 10° 277° (W) 2,519 8.7 -21.5°
Maximum altitude 04:31:21 11° 260° (W) 2,401 8.3 -21.8°
Drops below altitude 10° 04:33:01 10° 243° (WSW) 2,463 8.1 -22.1°
Sets 04:37:22 0° 210° (SSW) 3,308 8.3 -22.9°
